QPF
0.00 0.00 0.00 0.00 0.00 0.00 0.00 0.00 0.00 0.00 0.00 0.00 0.00 0.00 0.00 0.00 0.00 0.00 0.00 0.00 0.00 0.00 0.00 0.00 0.01 0.01 0.01 0.01 0.01 0.00 0.00 0.00 0.00 0.00 0.00 0.00 0.00 0.00 0.00 0.01 0.02 0.01 0.00
0.00 0.00 0.00 0.00 0.00 0.00 0.00 0.00 0.00 0.00 0.00 0.00 0.00 0.00 0.00 0.00 0.00 0.00 0.00 0.00 0.00 0.00 0.00 0.00 0.01 0.01 0.01 0.01 0.00 0.00 0.00 0.00 0.00 0.00 0.00 0.00 0.00 0.00 0.00 0.01 0.03 0.01 0.00
0.00 0.00 0.00 0.00 0.00 0.00 0.00 0.00 0.00 0.00 0.00 0.00 0.00 0.00 0.00 0.00 0.00 0.00 0.00 0.00 0.00 0.00 0.00 0.01 0.01 0.01 0.01 0.01 0.00 0.00 0.00 0.00 0.00 0.01 0.04 0.03 0.00 0.00 0.00 0.01 0.02 0.01 0.00
0.00 0.00 0.00 0.00 0.00 0.00 0.00 0.00 0.00 0.00 0.00 0.00 0.00 0.00 0.00 0.00 0.00 0.00 0.00 0.00 0.00 0.01 0.01 0.01 0.01 0.01 0.01 0.01 0.00 0.00 0.00 0.00 0.01 0.04 0.12 0.04 0.01 0.00 0.01 0.01 0.01 0.00 0.00
0.00 0.00 0.00 0.00 0.00 0.00 0.00 0.00 0.00 0.00 0.00 0.00 0.00 0.00 0.00 0.00 0.00 0.00 0.00 0.01 0.01 0.01 0.01 0.01 0.01 0.01 0.01 0.00 0.00 0.00 0.00 0.01 0.02 0.07 0.11 0.05 0.03 0.01 0.01 0.01 0.01 0.00 0.00
0.00 0.00 0.00 0.00 0.00 0.00 0.00 0.00 0.00 0.00 0.00 0.00 0.00 0.00 0.00 0.00 0.00 0.00 0.00 0.01 0.01 0.01 0.01 0.01 0.01 0.01 0.01 0.00 0.00 0.00 0.00 0.01 0.03 0.04 0.03 0.03 0.04 0.01 0.00 0.01 0.01 0.01 0.00
0.00 0.00 0.00 0.00 0.00 0.00 0.00 0.00 0.00 0.00 0.00 0.00 0.00 0.00 0.00 0.00 0.00 0.00 0.00 0.01 0.01 0.01 0.01 0.01 0.01 0.01 0.01 0.00 0.00 0.00 0.00 0.01 0.05 0.04 0.02 0.03 0.04 0.01 0.00 0.01 0.01 0.01 0.00
0.00 0.00 0.00 0.00 0.00 0.00 0.00 0.00 0.00 0.00 0.00 0.00 0.00 0.00 0.01 0.01 0.01 0.00 0.01 0.01 0.01 0.01 0.01 0.01 0.01 0.00 0.01 0.00 0.00 0.00 0.00 0.01 0.03 0.03 0.02 0.03 0.02 0.00 0.01 0.00 0.01 0.00 0.00
0.01 0.00 0.00 0.00 0.00 0.00 0.00 0.00 0.00 0.00 0.00 0.00 0.00 0.01 0.01 0.01 0.01 0.01 0.01 0.01 0.01 0.01 0.01 0.01 0.01 0.00 0.00 0.00 0.00 0.00 0.00 0.01 0.04 0.03 0.03 0.03 0.01 0.00 0.01 0.01 0.01 0.01 0.01
0.00 0.00 0.00 0.00 0.00 0.00 0.00 0.00 0.00 0.00 0.00 0.01 0.01 0.01 0.01 0.01 0.01 0.00 0.00 0.01 0.01 0.01 0.01 0.01 0.01 0.00 0.00 0.00 0.00 0.00 0.00 0.01 0.04 0.04 0.04 0.03 0.01 0.01 0.02 0.02 0.02 0.02 0.02
0.01 0.01 0.01 0.01 0.00 0.00 0.00 0.00 0.00 0.00 0.00 0.01 0.01 0.01 0.01 0.01 0.02 0.02 0.01 0.01 0.01 0.01 0.01 0.01 0.01 0.01 0.01 0.00 0.00 0.00 0.00 0.02 0.08 0.10 0.06 0.04 0.02 0.01 0.02 0.02 0.02 0.02 0.03
0.07 0.04 0.02 0.03 0.02 0.01 0.01 0.01 0.01 0.01 0.01 0.01 0.02 0.03 0.02 0.05 0.07 0.07 0.06 0.04 0.02 0.01 0.01 0.01 0.01 0.01 0.01 0.01 0.01 0.00 0.00 0.03 0.18 0.23 0.07 0.02 0.02 0.02 0.02 0.03 0.05 0.06 0.05
0.10 0.06 0.03 0.06 0.05 0.02 0.03 0.03 0.04 0.04 0.05 0.05 0.07 0.10 0.10 0.13 0.14 0.13 0.13 0.07 0.05 0.03 0.03 0.03 0.01 0.01 0.01 0.02 0.03 0.02 0.02 0.03 0.09 0.16 0.10 0.03 0.02 0.02 0.03 0.03 0.04 0.04 0.05
0.08 0.03 0.02 0.03 0.03 0.04 0.06 0.08 0.09 0.09 0.10 0.10 0.10 0.10 0.11 0.14 0.15 0.14 0.16 0.16 0.13 0.09 0.09 0.09 0.07 0.05 0.04 0.03 0.03 0.03 0.04 0.04 0.08 0.16 0.11 0.04 0.03 0.03 0.04 0.04 0.03 0.03 0.04
0.08 0.05 0.04 0.04 0.04 0.05 0.07 0.09 0.14 0.14 0.15 0.18 0.14 0.13 0.13 0.14 0.14 0.16 0.17 0.22 0.22 0.20 0.20 0.16 0.13 0.12 0.08 0.06 0.04 0.03 0.05 0.07 0.08 0.11 0.11 0.08 0.05 0.04 0.05 0.05 0.05 0.06 0.07
0.19 0.09 0.05 0.05 0.05 0.06 0.07 0.07 0.08 0.10 0.12 0.15 0.16 0.16 0.13 0.11 0.13 0.14 0.15 0.19 0.22 0.26 0.27 0.26 0.21 0.17 0.14 0.13 0.11 0.08 0.06 0.08 0.10 0.12 0.12 0.11 0.08 0.05 0.04 0.05 0.06 0.08 0.08
0.28 0.15 0.08 0.06 0.05 0.05 0.05 0.05 0.07 0.08 0.11 0.14 0.17 0.23 0.22 0.13 0.14 0.15 0.15 0.15 0.15 0.18 0.21 0.23 0.25 0.22 0.18 0.17 0.14 0.12 0.09 0.08 0.10 0.13 0.15 0.18 0.12 0.06 0.04 0.04 0.05 0.06 0.07
0.32 0.14 0.09 0.07 0.05 0.06 0.07 0.06 0.07 0.09 0.13 0.13 0.15 0.16 0.18 0.16 0.12 0.13 0.13 0.12 0.15 0.18 0.22 0.21 0.23 0.23 0.22 0.21 0.18 0.17 0.16 0.15 0.14 0.15 0.17 0.20 0.20 0.13 0.07 0.04 0.04 0.05 0.06
0.16 0.11 0.10 0.12 0.07 0.05 0.06 0.06 0.07 0.10 0.14 0.18 0.17 0.18 0.18 0.15 0.13 0.15 0.16 0.17 0.18 0.18 0.21 0.20 0.20 0.22 0.23 0.20 0.17 0.17 0.16 0.15 0.15 0.14 0.15 0.17 0.18 0.17 0.15 0.09 0.06 0.06 0.08
0.05 0.06 0.08 0.12 0.07 0.05 0.05 0.06 0.07 0.07 0.10 0.14 0.13 0.14 0.18 0.18 0.15 0.16 0.15 0.19 0.20 0.19 0.20 0.24 0.25 0.22 0.21 0.18 0.17 0.17 0.15 0.14 0.14 0.14 0.12 0.12 0.13 0.14 0.14 0.11 0.09 0.10 0.12
0.02 0.03 0.03 0.04 0.04 0.04 0.04 0.05 0.06 0.07 0.07 0.08 0.07 0.08 0.11 0.14 0.16 0.16 0.16 0.20 0.22 0.22 0.21 0.23 0.28 0.30 0.24 0.21 0.20 0.18 0.17 0.17 0.15 0.14 0.11 0.11 0.10 0.10 0.12 0.10 0.09 0.09 0.10
0.01 0.02 0.02 0.02 0.03 0.03 0.04 0.04 0.06 0.09 0.08 0.07 0.07 0.08 0.07 0.08 0.10 0.11 0.13 0.14 0.16 0.19 0.22 0.26 0.29 0.35 0.32 0.28 0.23 0.21 0.17 0.14 0.11 0.09 0.07 0.08 0.09 0.10 0.10 0.08 0.07 0.07 0.07
0.01 0.01 0.01 0.02 0.02 0.02 0.03 0.03 0.04 0.06 0.06 0.07 0.06 0.05 0.04 0.05 0.07 0.08 0.10 0.12 0.15 0.17 0.19 0.23 0.27 0.29 0.29 0.28 0.26 0.26 0.20 0.14 0.12 0.10 0.08 0.08 0.09 0.10 0.11 0.09 0.08 0.08 0.08
0.01 0.01 0.01 0.02 0.02 0.02 0.02 0.03 0.03 0.04 0.05 0.06 0.07 0.06 0.05 0.05 0.05 0.06 0.06 0.09 0.13 0.15 0.16 0.17 0.20 0.25 0.28 0.28 0.27 0.27 0.26 0.21 0.16 0.12 0.10 0.09 0.09 0.11 0.12 0.13 0.12 0.10 0.09
0.00 0.01 0.01 0.02 0.02 0.02 0.02 0.03 0.03 0.03 0.05 0.06 0.06 0.06 0.06 0.05 0.04 0.04 0.04 0.06 0.09 0.12 0.14 0.17 0.20 0.22 0.23 0.26 0.25 0.24 0.25 0.25 0.19 0.13 0.10 0.09 0.09 0.11 0.12 0.13 0.13 0.13 0.13
0.00 0.01 0.01 0.01 0.01 0.02 0.02 0.03 0.04 0.05 0.05 0.05 0.05 0.05 0.06 0.06 0.06 0.05 0.04 0.05 0.06 0.09 0.13 0.16 0.18 0.19 0.21 0.24 0.24 0.23 0.23 0.24 0.22 0.18 0.14 0.14 0.14 0.14 0.13 0.12 0.12 0.13 0.11
MSLP
1007.45 1007.66 1008.14 1008.82 1009.61 1010.38 1011.06 1011.58 1011.96 1012.23 1012.44 1012.67 1012.95 1013.29 1013.67 1014.05 1014.40 1014.69 1014.92 1015.11 1015.29 1015.48 1015.71 1015.96 1016.23 1016.47 1016.64 1016.74 1016.76 1016.74 1016.70 1016.70 1016.76 1016.91 1017.14 1017.41 1017.68 1017.93 1018.12 1018.25 1018.33 1018.37 1018.42
1007.29 1007.62 1008.20 1008.96 1009.77 1010.54 1011.18 1011.65 1011.99 1012.24 1012.48 1012.76 1013.13 1013.57 1014.04 1014.50 1014.88 1015.17 1015.36 1015.48 1015.59 1015.72 1015.91 1016.14 1016.41 1016.65 1016.85 1016.96 1016.99 1016.95 1016.91 1016.90 1016.96 1017.12 1017.36 1017.65 1017.95 1018.23 1018.44 1018.59 1018.68 1018.74 1018.80
1007.11 1007.56 1008.23 1009.04 1009.87 1010.63 1011.23 1011.68 1011.99 1012.25 1012.51 1012.86 1013.30 1013.81 1014.34 1014.83 1015.23 1015.49 1015.64 1015.71 1015.76 1015.85 1016.00 1016.23 1016.49 1016.75 1016.96 1017.07 1017.10 1017.06 1017.00 1016.98 1017.04 1017.20 1017.45 1017.77 1018.10 1018.40 1018.64 1018.82 1018.94 1019.03 1019.12
1006.95 1007.50 1008.24 1009.09 1009.94 1010.69 1011.28 1011.71 1012.02 1012.28 1012.58 1012.97 1013.45 1014.01 1014.57 1015.06 1015.44 1015.68 1015.78 1015.81 1015.83 1015.90 1016.05 1016.28 1016.55 1016.83 1017.03 1017.15 1017.17 1017.11 1017.04 1017.01 1017.06 1017.22 1017.48 1017.81 1018.15 1018.47 1018.73 1018.93 1019.09 1019.22 1019.35
1006.83 1007.45 1008.25 1009.14 1010.00 1010.75 1011.35 1011.78 1012.09 1012.38 1012.70 1013.11 1013.61 1014.17 1014.73 1015.21 1015.56 1015.77 1015.86 1015.87 1015.89 1015.97 1016.13 1016.38 1016.67 1016.94 1017.14 1017.25 1017.25 1017.19 1017.10 1017.06 1017.11 1017.27 1017.53 1017.85 1018.19 1018.50 1018.77 1018.98 1019.15 1019.31 1019.48
1006.73 1007.40 1008.24 1009.17 1010.06 1010.83 1011.44 1011.89 1012.23 1012.53 1012.87 1013.29 1013.78 1014.32 1014.85 1015.30 1015.63 1015.83 1015.92 1015.96 1016.01 1016.12 1016.31 1016.58 1016.88 1017.15 1017.34 1017.42 1017.41 1017.34 1017.25 1017.21 1017.27 1017.43 1017.68 1017.99 1018.31 1018.59 1018.83 1019.02 1019.18 1019.34 1019.52
1006.63 1007.33 1008.21 1009.16 1010.08 1010.89 1011.54 1012.02 1012.40 1012.73 1013.08 1013.49 1013.96 1014.47 1014.95 1015.37 1015.69 1015.89 1016.01 1016.10 1016.20 1016.37 1016.60 1016.89 1017.19 1017.45 1017.62 1017.68 1017.66 1017.59 1017.51 1017.50 1017.58 1017.75 1018.00 1018.29 1018.57 1018.80 1018.98 1019.11 1019.21 1019.34 1019.51
1006.50 1007.22 1008.11 1009.09 1010.04 1010.89 1011.58 1012.12 1012.54 1012.91 1013.27 1013.67 1014.11 1014.58 1015.03 1015.43 1015.74 1015.97 1016.14 1016.29 1016.46 1016.69 1016.96 1017.26 1017.56 1017.79 1017.94 1017.99 1017.96 1017.91 1017.88 1017.91 1018.03 1018.24 1018.50 1018.77 1019.00 1019.16 1019.26 1019.30 1019.32 1019.38 1019.50
1006.33 1007.04 1007.93 1008.92 1009.89 1010.78 1011.52 1012.11 1012.59 1012.99 1013.38 1013.78 1014.21 1014.64 1015.07 1015.45 1015.78 1016.04 1016.27 1016.49 1016.73 1017.00 1017.31 1017.61 1017.88 1018.08 1018.21 1018.25 1018.24 1018.23 1018.27 1018.38 1018.57 1018.83 1019.12 1019.38 1019.57 1019.66 1019.67 1019.61 1019.54 1019.50 1019.55
1006.14 1006.83 1007.70 1008.67 1009.63 1010.53 1011.31 1011.95 1012.48 1012.93 1013.35 1013.76 1014.18 1014.61 1015.02 1015.41 1015.75 1016.06 1016.35 1016.63 1016.92 1017.23 1017.54 1017.83 1018.07 1018.24 1018.34 1018.39 1018.42 1018.48 1018.60 1018.81 1019.10 1019.44 1019.77 1020.04 1020.20 1020.24 1020.17 1020.02 1019.86 1019.74 1019.71
1006.02 1006.66 1007.47 1008.37 1009.29 1010.16 1010.94 1011.61 1012.18 1012.67 1013.13 1013.57 1014.01 1014.44 1014.86 1015.26 1015.63 1015.98 1016.31 1016.64 1016.97 1017.29 1017.59 1017.85 1018.06 1018.20 1018.28 1018.35 1018.43 1018.58 1018.81 1019.13 1019.52 1019.95 1020.34 1020.63 1020.79 1020.81 1020.69 1020.49 1020.26 1020.08 1019.99
1006.05 1006.62 1007.32 1008.11 1008.93 1009.72 1010.45 1011.11 1011.71 1012.24 1012.74 1013.22 1013.68 1014.13 1014.57 1014.98 1015.38 1015.77 1016.14 1016.50 1016.84 1017.16 1017.44 1017.67 1017.84 1017.96 1018.05 1018.14 1018.29 1018.52 1018.86 1019.29 1019.79 1020.29 1020.74 1021.08 1021.26 1021.28 1021.16 1020.95 1020.71 1020.51 1020.39
1006.33 1006.79 1007.35 1007.97 1008.62 1009.28 1009.92 1010.54 1011.12 1011.68 1012.22 1012.73 1013.23 1013.70 1014.16 1014.60 1015.02 1015.43 1015.82 1016.20 1016.55 1016.86 1017.13 1017.33 1017.48 1017.59 1017.69 1017.83 1018.04 1018.36 1018.79 1019.31 1019.88 1020.46 1020.96 1021.33 1021.55 1021.61 1021.53 1021.36 1021.16 1020.99 1020.89
1006.90 1007.23 1007.59 1008.00 1008.44 1008.92 1009.43 1009.97 1010.52 1011.08 1011.64 1012.18 1012.71 1013.20 1013.68 1014.13 1014.57 1014.99 1015.40 1015.79 1016.15 1016.46 1016.72 1016.92 1017.07 1017.20 1017.33 1017.52 1017.80 1018.19 1018.68 1019.26 1019.88 1020.48 1021.00 1021.41 1021.66 1021.77 1021.76 1021.68 1021.57 1021.48 1021.44
1007.74 1007.91 1008.06 1008.23 1008.43 1008.71 1009.07 1009.50 1010.00 1010.55 1011.11 1011.66 1012.20 1012.71 1013.18 1013.64 1014.08 1014.51 1014.93 1015.33 1015.71 1016.03 1016.31 1016.54 1016.72 1016.89 1017.08 1017.33 1017.67 1018.10 1018.63 1019.23 1019.85 1020.44 1020.96 1021.36 1021.64 1021.80 1021.88 1021.90 1021.91 1021.94 1021.99
1008.75 1008.76 1008.69 1008.62 1008.60 1008.68 1008.89 1009.22 1009.65 1010.17 1010.71 1011.26 1011.79 1012.28 1012.74 1013.18 1013.61 1014.03 1014.47 1014.89 1015.30 1015.67 1015.99 1016.28 1016.53 1016.77 1017.03 1017.35 1017.74 1018.21 1018.75 1019.33 1019.91 1020.45 1020.91 1021.29 1021.57 1021.77 1021.92 1022.04 1022.18 1022.33 1022.50
1009.77 1009.63 1009.38 1009.11 1008.90 1008.81 1008.90 1009.14 1009.52 1010.00 1010.52 1011.04 1011.52 1011.97 1012.39 1012.79 1013.19 1013.61 1014.05 1014.51 1014.96 1015.40 1015.80 1016.17 1016.51 1016.85 1017.20 1017.59 1018.03 1018.52 1019.05 1019.59 1020.11 1020.57 1020.96 1021.27 1021.52 1021.74 1021.93 1022.15 1022.39 1022.65 1022.92
1010.65 1010.39 1010.00 1009.59 1009.25 1009.07 1009.07 1009.26 1009.61 1010.05 1010.53 1011.00 1011.43 1011.81 1012.16 1012.50 1012.86 1013.26 1013.71 1014.20 1014.71 1015.22 1015.72 1016.19 1016.64 1017.08 1017.52 1017.99 1018.48 1018.99 1019.51 1020.00 1020.44 1020.82 1021.12 1021.36 1021.57 1021.76 1021.98 1022.25 1022.56 1022.90 1023.25
1011.27 1010.94 1010.47 1009.98 1009.59 1009.38 1009.36 1009.54 1009.88 1010.29 1010.73 1011.14 1011.48 1011.78 1012.04 1012.30 1012.61 1012.98 1013.43 1013.95 1014.52 1015.11 1015.69 1016.26 1016.81 1017.35 1017.88 1018.42 1018.96 1019.50 1020.01 1020.47 1020.86 1021.16 1021.39 1021.56 1021.71 1021.88 1022.09 1022.37 1022.71 1023.10 1023.50
1011.57 1011.21 1010.74 1010.26 1009.89 1009.70 1009.72 1009.92 1010.26 1010.66 1011.05 1011.39 1011.65 1011.84 1012.01 1012.20 1012.44 1012.78 1013.23 1013.76 1014.37 1015.01 1015.66 1016.30 1016.93 1017.54 1018.14 1018.74 1019.33 1019.90 1020.42 1020.88 1021.25 1021.52 1021.71 1021.84 1021.95 1022.09 1022.27 1022.54 1022.88 1023.27 1023.68
1011.59 1011.26 1010.83 1010.41 1010.11 1010.00 1010.08 1010.33 1010.69 1011.08 1011.43 1011.70 1011.87 1011.98 1012.06 1012.17 1012.36 1012.66 1013.08 1013.61 1014.23 1014.89 1015.56 1016.23 1016.88 1017.52 1018.16 1018.80 1019.43 1020.04 1020.61 1021.10 1021.50 1021.79 1021.99 1022.12 1022.23 1022.35 1022.52 1022.76 1023.07 1023.45 1023.84
1011.43 1011.16 1010.81 1010.49 1010.29 1010.27 1010.43 1010.73 1011.10 1011.48 1011.80 1012.01 1012.11 1012.15 1012.16 1012.21 1012.35 1012.61 1013.00 1013.51 1014.09 1014.72 1015.36 1016.00 1016.62 1017.24 1017.87 1018.52 1019.18 1019.84 1020.47 1021.04 1021.52 1021.89 1022.16 1022.35 1022.49 1022.62 1022.79 1023.01 1023.30 1023.64 1024.01
1011.23 1011.05 1010.79 1010.57 1010.47 1010.52 1010.74 1011.07 1011.45 1011.81 1012.10 1012.27 1012.34 1012.33 1012.31 1012.33 1012.43 1012.66 1013.01 1013.46 1013.97 1014.52 1015.07 1015.60 1016.14 1016.68 1017.26 1017.88 1018.56 1019.26 1019.98 1020.65 1021.26 1021.76 1022.16 1022.45 1022.68 1022.87 1023.07 1023.29 1023.56 1023.88 1024.21
1011.15 1011.04 1010.87 1010.73 1010.69 1010.78 1011.01 1011.34 1011.71 1012.05 1012.31 1012.47 1012.52 1012.52 1012.50 1012.52 1012.62 1012.82 1013.11 1013.48 1013.89 1014.31 1014.71 1015.10 1015.49 1015.91 1016.40 1016.97 1017.64 1018.39 1019.19 1019.99 1020.75 1021.42 1021.98 1022.43 1022.78 1023.07 1023.32 1023.57 1023.84 1024.14 1024.45
1011.25 1011.22 1011.11 1011.01 1010.98 1011.07 1011.27 1011.56 1011.88 1012.19 1012.44 1012.60 1012.69 1012.72 1012.74 1012.79 1012.90 1013.08 1013.32 1013.60 1013.87 1014.13 1014.35 1014.56 1014.77 1015.04 1015.42 1015.92 1016.57 1017.35 1018.24 1019.17 1020.08 1020.93 1021.67 1022.29 1022.79 1023.19 1023.52 1023.82 1024.11 1024.41 1024.71
1011.56 1011.59 1011.51 1011.41 1011.35 1011.39 1011.52 1011.74 1012.01 1012.28 1012.52 1012.71 1012.85 1012.95 1013.03 1013.14 1013.27 1013.44 1013.62 1013.79 1013.93 1014.01 1014.04 1014.06 1014.10 1014.21 1014.47 1014.90 1015.52 1016.33 1017.29 1018.32 1019.38 1020.39 1021.30 1022.08 1022.72 1023.24 1023.67 1024.02 1024.34 1024.64 1024.95
Thickness
5824 5819 5812 5809 5806 5803 5800 5797 5794 5792 5789 5787 5785 5784 5782 5780 5778 5776 5774 5771 5768 5766 5764 5762 5760 5758 5757 5756 5755 5754 5752 5752 5751 5749 5747 5745 5743 5742 5740 5739 5738 5735 5733
5827 5817 5810 5808 5804 5801 5798 5795 5792 5789 5787 5785 5783 5781 5779 5777 5775 5773 5771 5768 5766 5764 5762 5760 5758 5756 5755 5754 5752 5751 5750 5750 5748 5747 5745 5743 5741 5739 5738 5738 5737 5733 5731
5824 5815 5808 5805 5802 5799 5796 5793 5790 5787 5784 5782 5780 5778 5776 5774 5772 5770 5768 5765 5764 5762 5760 5758 5756 5755 5753 5752 5750 5749 5748 5748 5746 5745 5744 5743 5739 5737 5736 5734 5733 5731 5729
5822 5814 5808 5802 5800 5797 5793 5790 5787 5784 5781 5779 5777 5775 5773 5771 5769 5767 5765 5763 5761 5759 5758 5756 5754 5753 5751 5750 5748 5747 5747 5746 5745 5744 5744 5743 5739 5735 5733 5732 5730 5729 5727
5820 5813 5804 5800 5797 5794 5791 5788 5785 5782 5779 5776 5774 5771 5769 5768 5766 5764 5762 5760 5759 5757 5755 5754 5752 5751 5749 5748 5746 5746 5745 5745 5744 5743 5743 5742 5738 5734 5732 5730 5728 5727 5725
5818 5810 5801 5797 5794 5790 5787 5784 5782 5779 5776 5773 5771 5769 5766 5764 5763 5761 5759 5758 5756 5754 5753 5752 5750 5749 5747 5746 5745 5744 5744 5743 5743 5744 5744 5742 5737 5733 5731 5729 5727 5725 5724
5815 5807 5798 5793 5790 5786 5784 5781 5778 5775 5772 5770 5768 5765 5763 5761 5760 5758 5756 5755 5753 5752 5750 5749 5748 5746 5745 5744 5743 5742 5742 5742 5742 5745 5745 5741 5736 5733 5730 5728 5726 5724 5723
5812 5803 5794 5789 5786 5782 5779 5777 5774 5772 5769 5767 5764 5762 5760 5758 5756 5755 5753 5752 5751 5749 5748 5746 5745 5744 5743 5742 5741 5741 5740 5740 5743 5744 5743 5740 5735 5732 5730 5727 5725 5723 5722
5809 5800 5792 5786 5781 5778 5775 5773 5770 5768 5765 5763 5761 5759 5757 5755 5753 5752 5750 5749 5748 5747 5746 5744 5743 5742 5741 5740 5740 5739 5739 5739 5740 5742 5741 5737 5734 5732 5729 5726 5724 5723 5721
5805 5798 5791 5786 5781 5776 5772 5769 5766 5764 5762 5759 5757 5755 5753 5751 5750 5748 5747 5746 5745 5744 5743 5742 5741 5740 5739 5738 5737 5737 5737 5737 5739 5740 5739 5735 5733 5731 5728 5725 5723 5722 5720
5799 5794 5791 5786 5781 5777 5772 5767 5763 5760 5758 5755 5753 5751 5749 5749 5748 5746 5746 5744 5742 5741 5740 5739 5738 5738 5737 5736 5735 5735 5735 5736 5738 5737 5736 5733 5731 5729 5727 5724 5722 5721 5719
5787 5787 5787 5784 5780 5777 5774 5765 5762 5759 5755 5753 5752 5749 5747 5748 5747 5747 5745 5742 5740 5738 5737 5736 5735 5735 5735 5735 5734 5733 5734 5736 5737 5735 5733 5731 5729 5727 5725 5723 5721 5719 5718
5782 5780 5782 5780 5776 5776 5772 5764 5761 5759 5755 5752 5751 5748 5746 5746 5746 5744 5741 5739 5738 5736 5735 5734 5733 5733 5735 5736 5736 5734 5734 5736 5736 5733 5731 5729 5728 5726 5724 5722 5720 5718 5716
5775 5775 5777 5775 5772 5771 5768 5764 5760 5757 5754 5752 5750 5747 5745 5745 5746 5745 5740 5739 5736 5735 5735 5733 5733 5733 5735 5736 5737 5736 5735 5735 5734 5732 5729 5727 5725 5724 5722 5720 5718 5716 5714
5764 5766 5770 5769 5766 5766 5763 5761 5758 5755 5752 5749 5747 5745 5744 5744 5743 5743 5740 5737 5736 5735 5732 5730 5731 5733 5732 5734 5735 5736 5734 5733 5731 5728 5726 5723 5721 5720 5719 5717 5715 5713 5712
5754 5756 5761 5763 5762 5760 5757 5755 5754 5752 5750 5748 5745 5743 5740 5739 5739 5738 5737 5735 5734 5734 5732 5729 5729 5730 5730 5730 5731 5732 5731 5729 5727 5724 5722 5720 5718 5716 5715 5713 5712 5710 5708
5744 5748 5750 5754 5754 5752 5750 5749 5749 5747 5745 5744 5741 5738 5735 5735 5734 5733 5733 5732 5731 5732 5731 5728 5728 5726 5725 5724 5724 5724 5725 5724 5722 5720 5718 5716 5713 5711 5710 5709 5708 5706 5704
5738 5740 5743 5747 5746 5744 5743 5742 5742 5742 5740 5738 5736 5734 5731 5729 5729 5729 5729 5728 5728 5727 5727 5724 5723 5720 5719 5717 5716 5717 5717 5717 5715 5714 5713 5711 5709 5707 5705 5704 5703 5701 5700
5732 5733 5735 5737 5736 5736 5736 5735 5735 5734 5733 5732 5730 5729 5725 5723 5723 5723 5724 5723 5723 5723 5722 5721 5719 5717 5713 5711 5709 5709 5710 5709 5708 5707 5706 5705 5703 5702 5700 5698 5697 5696 5694
5729 5728 5727 5728 5728 5729 5728 5727 5727 5727 5726 5725 5723 5721 5720 5719 5719 5718 5718 5717 5717 5718 5717 5715 5713 5712 5709 5706 5703 5701 5700 5700 5700 5699 5699 5698 5696 5696 5694 5692 5690 5689 5688
5723 5722 5720 5720 5720 5720 5719 5718 5717 5717 5717 5717 5717 5716 5714 5714 5714 5712 5712 5712 5712 5711 5711 5710 5708 5705 5702 5700 5694 5690 5688 5690 5689 5690 5691 5690 5689 5689 5688 5686 5684 5682 5680
5714 5714 5713 5712 5712 5711 5710 5711 5711 5711 5710 5710 5710 5710 5709 5707 5707 5708 5707 5706 5706 5706 5705 5704 5702 5699 5696 5695 5690 5683 5678 5677 5679 5682 5682 5682 5681 5680 5679 5678 5677 5676 5673
5706 5705 5705 5703 5703 5702 5702 5703 5704 5703 5703 5703 5702 5702 5702 5701 5701 5700 5701 5701 5701 5700 5699 5699 5697 5695 5690 5690 5690 5684 5678 5674 5671 5670 5672 5672 5672 5672 5671 5670 5670 5668 5665
5700 5699 5697 5695 5694 5693 5694 5693 5693 5692 5691 5692 5694 5694 5694 5694 5694 5694 5694 5694 5694 5694 5693 5693 5693 5691 5688 5685 5684 5685 5683 5679 5670 5662 5660 5662 5663 5662 5662 5661 5660 5659 5657
5692 5690 5688 5686 5685 5685 5684 5684 5683 5683 5684 5685 5686 5686 5686 5686 5686 5687 5687 5687 5687 5686 5686 5687 5687 5686 5685 5683 5681 5679 5676 5674 5672 5665 5656 5653 5652 5652 5652 5651 5650 5648 5647
5684 5682 5680 5678 5677 5676 5676 5675 5674 5674 5674 5674 5676 5676 5677 5677 5678 5678 5679 5679 5679 5679 5679 5680 5680 5680 5680 5679 5678 5677 5675 5671 5667 5664 5657 5650 5645 5641 5641 5641 5641 5640 5638